This is the latest recevied weather packets stored in our database for station/object N4DLW-3. If no packets are shown the sender has not sent any weather packets the latest 10 day(s).
| Time | Temp. | Humidity | Pressure | Rain* | Wind** | Luminosity | Snow |
|---|---|---|---|---|---|---|---|
| 1777836872 | 27.22° C | 56% | 1015.6 hPa | 0 mm | - | - | - |
| 1777836560 | 27.22° C | 58% | 1015.8 hPa | 0 mm | - | - | - |
| 1777836275 | 27.22° C | 57% | 1015.8 hPa | 0 mm | - | - | - |
| 1777835963 | 27.22° C | 58% | 1015.8 hPa | 0 mm | - | - | - |
| 1777835680 | 27.22° C | 59% | 1015.9 hPa | 0 mm | - | - | - |
| 1777835366 | 26.67° C | 58% | 1016.1 hPa | 0 mm | - | - | - |
| 1777835075 | 26.67° C | 56% | 1016.2 hPa | 0 mm | - | - | - |
| 1777834761 | 26.67° C | 59% | 1016.3 hPa | 0 mm | - | - | - |
| 1777834470 | 26.11° C | 59% | 1016.4 hPa | 0 mm | - | - | - |
| 1777834185 | 26.11° C | 61% | 1016.4 hPa | 0 mm | - | - | - |
| 1777833874 | 26.11° C | 61% | 1016.5 hPa | 0 mm | - | - | - |
| 1777833587 | 26.11° C | 60% | 1016.6 hPa | 0 mm | - | - | - |
| 1777833272 | 26.11° C | 60% | 1016.7 hPa | 0 mm | - | - | - |
| 1777832960 | 26.11° C | 61% | 1016.7 hPa | 0 mm | - | - | - |
| 1777832670 | 25.56° C | 61% | 1016.7 hPa | 0 mm | - | - | - |
| 1777832368 | 26.11° C | 61% | 1016.8 hPa | 0 mm | - | - | - |
| 1777832086 | 26.11° C | 63% | 1016.8 hPa | 0 mm | - | - | - |
| 1777831774 | 26.11° C | 62% | 1016.8 hPa | 0 mm | - | - | - |
| 1777831463 | 26.11° C | 61% | 1016.8 hPa | 0 mm | - | - | - |
| 1777831170 | 26.11° C | 62% | 1017 hPa | 0 mm | - | - | - |
| 1777830865 | 26.11° C | 61% | 1017 hPa | 0 mm | - | - | - |
| 1777830572 | 26.11° C | 63% | 1017.2 hPa | 0 mm | - | - | - |
| 1777830285 | 25.56° C | 63% | 1017.2 hPa | 0 mm | - | - | - |
| 1777829972 | 25.56° C | 65% | 1017.2 hPa | 0 mm | - | - | - |
| 1777829372 | 25° C | 64% | 1017.3 hPa | 0 mm | - | - | - |
* Rain latest hour (hover to see other rain measurements)
** Current wind speed in m/s (hover to see current wind gust speed)